When you browse on this site, cookies collect data to enhance your experience and personalize the content and advertising you see.
Visit our Privacy Policy to learn more. By continuing to use the site, you agree to this use of cookies and data.
  • In Austria
  • List of Countries
  • For 7 days
  • Water Temperature
  • Weather Map
  • News
  • Weather Widgets
  • user-avatar
    Login

    Hourly Weather Borovaya

    Today, 27 January, Monday

    Time Temperature Precipitation Wind Pressure Humidity
    00:00 -2°C° 0 mm 3 mps 751 mmHg 92%
    01:00 -2°C° 0 mm 3 mps 751 mmHg 93%
    02:00 -2°C° 0 mm 2 mps 751 mmHg 93%
    03:00 -2°C° 0 mm 2 mps 751 mmHg 94%
    04:00 -2°C° 0 mm 2 mps 751 mmHg 94%
    05:00 -3°C° 0 mm 2 mps 750 mmHg 95%
    06:00 -3°C° 0 mm 2 mps 750 mmHg 95%
    07:00 -3°C° 0 mm 2 mps 750 mmHg 95%
    08:00 -3°C° 0 mm 2 mps 750 mmHg 94%
    09:00 -2°C° 0 mm 2 mps 750 mmHg 91%
    10:00 -1°C° 0 mm 2 mps 750 mmHg 88%
    11:00 +1°C° 0 mm 2 mps 750 mmHg 85%
    12:00 +1°C° 0 mm 2 mps 750 mmHg 85%
    13:00 +1°C° 0 mm 2 mps 750 mmHg 85%
    14:00 +1°C° 0 mm 2 mps 749 mmHg 92%
    15:00 +1°C° 0.2 mm 2 mps 749 mmHg 94%
    16:00 -1°C° 0.2 mm 2 mps 749 mmHg 95%
    17:00 -1°C° 0.2 mm 2 mps 748 mmHg 97%
    18:00 -1°C° 0.1 mm 2 mps 748 mmHg 96%
    19:00 -1°C° 0.1 mm 3 mps 748 mmHg 95%
    20:00 -1°C° 0.1 mm 3 mps 748 mmHg 94%
    21:00 -1°C° 0 mm 3 mps 748 mmHg 95%
    22:00 -1°C° 0 mm 2 mps 748 mmHg 95%
    23:00 -1°C° 0 mm 2 mps 748 mmHg 96%

    Tomorrow, 28 January, Tuesday

    Time Temperature Precipitation Wind Pressure Humidity
    00:00 -1°C° 0 mm 2 mps 747 mmHg 96%
    01:00 -2°C° 0 mm 2 mps 747 mmHg 96%
    02:00 -2°C° 0 mm 2 mps 747 mmHg 96%
    03:00 -2°C° 0 mm 2 mps 747 mmHg 95%
    04:00 -2°C° 0 mm 2 mps 747 mmHg 95%
    05:00 -2°C° 0 mm 2 mps 746 mmHg 94%
    06:00 -2°C° 0 mm 2 mps 746 mmHg 93%
    07:00 -2°C° 0 mm 2 mps 746 mmHg 92%
    08:00 -3°C° 0 mm 2 mps 746 mmHg 91%
    09:00 -2°C° 0 mm 2 mps 746 mmHg 87%
    10:00 -1°C° 0 mm 2 mps 746 mmHg 83%
    11:00 +1°C° 0 mm 2 mps 746 mmHg 79%
    12:00 +1°C° 0 mm 2 mps 746 mmHg 79%
    13:00 +2°C° 0 mm 2 mps 745 mmHg 78%
    14:00 +2°C° 0 mm 2 mps 745 mmHg 78%
    15:00 +2°C° 0 mm 2 mps 745 mmHg 81%
    16:00 +1°C° 0 mm 2 mps 745 mmHg 84%
    17:00 -1°C° 0 mm 2 mps 744 mmHg 87%
    18:00 -1°C° 0 mm 2 mps 744 mmHg 88%
    19:00 -1°C° 0 mm 3 mps 744 mmHg 89%
    20:00 -1°C° 0 mm 3 mps 744 mmHg 91%
    21:00 -2°C° 0 mm 3 mps 744 mmHg 92%
    22:00 -2°C° 0 mm 3 mps 743 mmHg 93%
    23:00 -2°C° 0 mm 3 mps 743 mmHg 94%

    Day after tomorrow, 29 January, Wednesday

    Time Temperature Precipitation Wind Pressure Humidity
    00:00 -2°C° 0 mm 3 mps 743 mmHg 94%
    01:00 -2°C° 0 mm 3 mps 743 mmHg 93%
    02:00 -1°C° 0 mm 3 mps 742 mmHg 93%
    03:00 -2°C° 0 mm 4 mps 742 mmHg 92%
    04:00 -2°C° 0 mm 4 mps 741 mmHg 91%
    05:00 -2°C° 0 mm 4 mps 740 mmHg 90%
    06:00 -2°C° 0 mm 5 mps 740 mmHg 91%
    07:00 -2°C° 0 mm 5 mps 740 mmHg 93%
    08:00 -1°C° 0 mm 5 mps 739 mmHg 95%
    09:00 0°C° 0.1 mm 5 mps 739 mmHg 94%
    10:00 0°C° 0.1 mm 5 mps 738 mmHg 94%
    11:00 +1°C° 0.1 mm 6 mps 738 mmHg 94%
    12:00 +1°C° 0.1 mm 6 mps 737 mmHg 93%
    13:00 +1°C° 0.1 mm 6 mps 736 mmHg 93%
    14:00 +1°C° 0.1 mm 6 mps 736 mmHg 92%
    15:00 +1°C° 0.2 mm 5 mps 735 mmHg 93%
    16:00 +1°C° 0.2 mm 5 mps 734 mmHg 94%
    17:00 +1°C° 0.2 mm 5 mps 734 mmHg 95%
    18:00 +1°C° 0.8 mm 5 mps 733 mmHg 95%
    19:00 +1°C° 0.8 mm 5 mps 733 mmHg 95%
    20:00 +1°C° 0.8 mm 5 mps 733 mmHg 96%
    21:00 +1°C° 0.9 mm 4 mps 732 mmHg 96%
    22:00 +1°C° 0.9 mm 4 mps 732 mmHg 97%
    23:00 0°C° 0.9 mm 4 mps 732 mmHg 97%

    30 January, Thursday

    Time Temperature Precipitation Wind Pressure Humidity
    00:00 0°C° 0.2 mm 4 mps 732 mmHg 97%
    01:00 +1°C° 0.2 mm 3 mps 731 mmHg 97%
    02:00 +1°C° 0.2 mm 3 mps 731 mmHg 97%
    03:00 0°C° 0.1 mm 3 mps 731 mmHg 97%
    04:00 0°C° 0.1 mm 3 mps 731 mmHg 97%
    05:00 -1°C° 0.1 mm 3 mps 731 mmHg 96%
    06:00 -1°C° 0 mm 3 mps 731 mmHg 95%
    07:00 -1°C° 0 mm 3 mps 731 mmHg 94%
    08:00 -1°C° 0 mm 3 mps 731 mmHg 92%
    09:00 -1°C° 0 mm 3 mps 731 mmHg 90%
    10:00 0°C° 0 mm 3 mps 731 mmHg 88%
    11:00 0°C° 0 mm 3 mps 731 mmHg 86%
    12:00 0°C° 0 mm 3 mps 732 mmHg 84%
    13:00 0°C° 0 mm 3 mps 732 mmHg 83%
    14:00 +1°C° 0 mm 3 mps 733 mmHg 82%
    15:00 0°C° 0 mm 3 mps 733 mmHg 84%
    16:00 0°C° 0 mm 3 mps 734 mmHg 86%
    17:00 -1°C° 0 mm 3 mps 734 mmHg 88%
    18:00 -1°C° 0 mm 3 mps 735 mmHg 88%
    19:00 -1°C° 0 mm 3 mps 735 mmHg 88%
    20:00 -1°C° 0 mm 3 mps 736 mmHg 88%
    21:00 -1°C° 0 mm 3 mps 737 mmHg 89%
    22:00 -1°C° 0 mm 3 mps 737 mmHg 90%
    23:00 -1°C° 0 mm 3 mps 737 mmHg 90%

    31 January, Friday

    Time Temperature Precipitation Wind Pressure Humidity
    00:00 -1°C° 0.2 mm 2 mps 738 mmHg 93%
    01:00 -1°C° 0.2 mm 2 mps 738 mmHg 95%
    02:00 -1°C° 0.2 mm 2 mps 738 mmHg 97%
    03:00 -1°C° 0.5 mm 3 mps 739 mmHg 97%
    04:00 -1°C° 0.5 mm 3 mps 739 mmHg 97%
    05:00 -1°C° 0.5 mm 4 mps 739 mmHg 97%
    06:00 -1°C° 0.3 mm 4 mps 739 mmHg 97%
    07:00 -1°C° 0.3 mm 5 mps 740 mmHg 96%
    08:00 -1°C° 0.3 mm 5 mps 740 mmHg 95%
    09:00 -1°C° 0 mm 5 mps 740 mmHg 93%
    10:00 -1°C° 0 mm 4 mps 740 mmHg 90%
    11:00 -1°C° 0 mm 4 mps 740 mmHg 88%
    12:00 -1°C° 0 mm 4 mps 740 mmHg 88%
    13:00 0°C° 0 mm 3 mps 739 mmHg 88%
    14:00 0°C° 0 mm 3 mps 739 mmHg 88%
    15:00 0°C° 0 mm 3 mps 739 mmHg 91%
    16:00 0°C° 0 mm 3 mps 739 mmHg 94%
    17:00 0°C° 0 mm 3 mps 739 mmHg 98%
    18:00 0°C° 0.1 mm 3 mps 739 mmHg 98%
    19:00 +1°C° 0.1 mm 2 mps 739 mmHg 98%
    20:00 +1°C° 0.1 mm 2 mps 739 mmHg 98%
    21:00 +1°C° 0.1 mm 2 mps 739 mmHg 98%
    22:00 +1°C° 0.1 mm 2 mps 740 mmHg 98%
    23:00 +1°C° 0.1 mm 2 mps 740 mmHg 98%

    1 February, Saturday

    Time Temperature Precipitation Wind Pressure Humidity
    00:00 +1°C° 0 mm 2 mps 740 mmHg 98%
    01:00 +1°C° 0 mm 2 mps 740 mmHg 98%
    02:00 +1°C° 0 mm 2 mps 741 mmHg 98%
    03:00 +1°C° 0 mm 2 mps 741 mmHg 98%
    04:00 +1°C° 0 mm 2 mps 741 mmHg 98%
    05:00 +1°C° 0 mm 2 mps 741 mmHg 98%
    06:00 +1°C° 0 mm 2 mps 741 mmHg 97%
    07:00 -1°C° 0 mm 2 mps 741 mmHg 97%
    08:00 -1°C° 0 mm 2 mps 741 mmHg 97%
    09:00 +1°C° 0 mm 2 mps 741 mmHg 96%
    10:00 0°C° 0 mm 3 mps 742 mmHg 95%
    11:00 0°C° 0 mm 3 mps 742 mmHg 94%
    12:00 0°C° 0 mm 3 mps 742 mmHg 95%
    13:00 +1°C° 0 mm 3 mps 742 mmHg 96%
    14:00 +1°C° 0 mm 3 mps 742 mmHg 97%
    15:00 +1°C° 0 mm 3 mps 742 mmHg 95%
    16:00 +1°C° 0 mm 3 mps 742 mmHg 94%
    17:00 +1°C° 0 mm 3 mps 742 mmHg 93%
    18:00 +1°C° 0 mm 3 mps 742 mmHg 94%
    19:00 0°C° 0 mm 4 mps 741 mmHg 95%
    20:00 0°C° 0 mm 4 mps 741 mmHg 96%
    21:00 +1°C° 0 mm 4 mps 741 mmHg 96%
    22:00 +1°C° 0 mm 4 mps 741 mmHg 97%
    23:00 +1°C° 0 mm 5 mps 741 mmHg 97%
    Show more